Sturgeon Bay, WI

8:14 AM CST on January 22, 2017 (GMT -0600)
Door County Cherryland

Weather History for KSUE - April, 2013

Change the Weather History Date:

Tuesday, April 30, 2013

  Actual Average Record
Temperature  
Mean Temperature 55 °F -  
Max Temperature 64 °F 58 °F 79 °F (1957)
Min Temperature 48 °F 38 °F 20 °F (1956)
Degree Days  
Heating Degree Days 10    
Growing Degree Days 5 (Base 50)    
Moisture  
Dew Point 48 °F    
Average Humidity 79    
Maximum Humidity 93    
Minimum Humidity 63    
Precipitation  
Precipitation 0.40 in - - ()
Sea Level Pressure  
Sea Level Pressure 29.75 in    
Wind  
Wind Speed 17 mph (SSE)    
Max Wind Speed 30 mph    
Max Gust Speed 38 mph    
Visibility 9 miles    
Events Thunderstorm    
Averages and records for this station are not official NWS values.
T = Trace of Precipitation, MM = Missing Value Source: NWS Daily Summary

Daily Weather History Graph

Daily Weather History Graph

Search for Another Location

Airport or City:

Trip Planner

Search our weather history database for the weather conditions in past years. The results will help you decide how hot, cold, wet, or windy it might be!

Date:

Astronomy

Apr. 30, 2013 Rise Set
Actual Time 5:40 AM CDT 7:54 PM CDT
Civil Twilight 5:08 AM CDT 8:26 PM CDT
Nautical Twilight 4:28 AM CDT 9:06 PM CDT
Astronomical Twilight 3:44 AM CDT 9:50 PM CDT
Moon 12:19 AM CDT (4/30) 10:06 AM CDT (4/30)
Length of Visible Light 15h 17m
Length of Day
14h 13m
Waning Gibbous, 70% of the Moon is Illuminated
Apr 30
Waning Gibbous
May 2
Last Quarter
May 9
New
May 17
First Quarter
May 24
Full

Hourly Weather History & Observations

Time (CDT) Temp. Dew Point Humidity Pressure Visibility Wind Dir Wind Speed Gust Speed Precip Events Conditions
12:15 AM 51.8 °F 44.6 °F 76% 29.78 in 10.0 mi South 9.2 mph - N/A Thunderstorm Thunderstorm
12:35 AM 50.0 °F 46.4 °F 87% 29.78 in 10.0 mi SE 13.8 mph - 0.12 in Thunderstorm Thunderstorm
12:55 AM 48.2 °F 44.6 °F 87% 29.77 in 10.0 mi SSE 13.8 mph - 0.12 in Thunderstorm Thunderstorm
1:15 AM 48.2 °F 44.6 °F 87% 29.77 in 10.0 mi SSE 11.5 mph - N/A   Clear
1:35 AM 48.2 °F 44.6 °F 87% 29.76 in 10.0 mi South 15.0 mph 18.4 mph N/A   Clear
1:55 AM 50.0 °F 44.6 °F 82% 29.76 in 10.0 mi South 16.1 mph 23.0 mph N/A   Clear
2:15 AM 48.2 °F 44.6 °F 87% 29.76 in 10.0 mi South 15.0 mph 21.9 mph N/A   Clear
2:55 AM 50.0 °F 44.6 °F 82% 29.75 in 10.0 mi South 15.0 mph 24.2 mph N/A   Clear
3:15 AM 48.2 °F 44.6 °F 87% 29.74 in 10.0 mi SSE 13.8 mph 21.9 mph N/A   Clear
3:35 AM 48.2 °F 44.6 °F 87% 29.74 in 10.0 mi SSE 17.3 mph 21.9 mph N/A   Clear
3:55 AM 48.2 °F 44.6 °F 87% 29.75 in 10.0 mi South 15.0 mph - N/A   Scattered Clouds
4:15 AM 48.2 °F 44.6 °F 87% 29.74 in 10.0 mi South 17.3 mph 23.0 mph N/A Thunderstorm Mostly Cloudy
4:35 AM 48.2 °F 44.6 °F 87% 29.74 in 5.0 mi South 19.6 mph 27.6 mph 0.06 in Thunderstorm Thunderstorm
4:55 AM 50.0 °F 46.4 °F 87% 29.74 in 8.0 mi South 19.6 mph 24.2 mph 0.07 in Thunderstorm Overcast
5:15 AM 51.8 °F 48.2 °F 88% 29.73 in 10.0 mi South 17.3 mph 28.8 mph N/A   Overcast
5:35 AM 51.8 °F 48.2 °F 88% 29.74 in 5.0 mi South 25.3 mph 29.9 mph 0.06 in Thunderstorm Thunderstorm
5:55 AM 53.6 °F 48.2 °F 82% 29.76 in 7.0 mi South 20.7 mph 28.8 mph 0.20 in Thunderstorm Thunderstorm
6:15 AM 51.8 °F 48.2 °F 88% 29.76 in 9.0 mi SSE 21.9 mph 29.9 mph N/A Thunderstorm Overcast
6:35 AM 50.0 °F 46.4 °F 87% 29.75 in 5.0 mi SSE 18.4 mph 24.2 mph N/A   Overcast
6:55 AM 48.2 °F 46.4 °F 93% 29.75 in 5.0 mi SSE 16.1 mph 25.3 mph 0.01 in   Overcast
7:15 AM 48.2 °F 44.6 °F 87% 29.77 in 5.0 mi SSE 15.0 mph 23.0 mph N/A   Overcast
7:35 AM 48.2 °F 44.6 °F 87% 29.76 in 5.0 mi SE 16.1 mph 24.2 mph N/A   Overcast
7:55 AM 48.2 °F 44.6 °F 87% 29.77 in 5.0 mi SSE 18.4 mph 28.8 mph N/A   Overcast
8:15 AM 48.2 °F 44.6 °F 87% 29.75 in 5.0 mi SSE 16.1 mph 24.2 mph N/A   Overcast
8:35 AM 48.2 °F 44.6 °F 87% 29.74 in 5.0 mi SSE 13.8 mph 19.6 mph N/A   Mostly Cloudy
8:55 AM 50.0 °F 46.4 °F 87% 29.75 in 6.0 mi SSE 18.4 mph 24.2 mph N/A   Overcast
9:15 AM 50.0 °F 46.4 °F 87% 29.72 in 7.0 mi SSE 19.6 mph 24.2 mph N/A   Overcast
9:35 AM 50.0 °F 46.4 °F 87% 29.73 in 6.0 mi SSE 23.0 mph 31.1 mph N/A   Overcast
9:55 AM 50.0 °F 46.4 °F 87% 29.73 in 7.0 mi South 16.1 mph 28.8 mph N/A   Mostly Cloudy
10:15 AM 53.6 °F 48.2 °F 82% 29.73 in 8.0 mi SSE 23.0 mph 28.8 mph N/A   Mostly Cloudy
10:35 AM 53.6 °F 48.2 °F 82% 29.73 in 8.0 mi South 20.7 mph 33.4 mph N/A   Mostly Cloudy
10:55 AM 53.6 °F 48.2 °F 82% 29.74 in 8.0 mi SSE 21.9 mph 28.8 mph N/A   Mostly Cloudy
11:15 AM 53.6 °F 48.2 °F 82% 29.75 in 9.0 mi SSE 24.2 mph 34.5 mph N/A   Mostly Cloudy
11:35 AM 53.6 °F 48.2 °F 82% 29.75 in 9.0 mi SSE 19.6 mph 31.1 mph N/A   Overcast
11:55 AM 53.6 °F 48.2 °F 82% 29.74 in 7.0 mi South 20.7 mph 34.5 mph N/A   Overcast
12:15 PM 55.4 °F 48.2 °F 77% 29.73 in 9.0 mi SSE 23.0 mph 35.7 mph N/A   Overcast
12:35 PM 55.4 °F 48.2 °F 77% 29.72 in 8.0 mi SSE 28.8 mph 35.7 mph N/A   Overcast
12:55 PM 55.4 °F 48.2 °F 77% 29.72 in 8.0 mi South 23.0 mph 32.2 mph N/A   Mostly Cloudy
1:15 PM 55.4 °F 48.2 °F 77% 29.72 in 8.0 mi South 24.2 mph 32.2 mph N/A   Scattered Clouds
1:35 PM 57.2 °F 50.0 °F 77% 29.72 in 8.0 mi South 26.5 mph 36.8 mph N/A   Partly Cloudy
1:55 PM 57.2 °F 51.8 °F 82% 29.72 in 9.0 mi South 29.9 mph 38.0 mph N/A   Partly Cloudy
2:15 PM 59.0 °F 51.8 °F 77% 29.72 in 10.0 mi South 24.2 mph 32.2 mph N/A   Clear
2:35 PM 62.6 °F 53.6 °F 72% 29.71 in 10.0 mi South 25.3 mph 31.1 mph N/A   Clear
2:55 PM 62.6 °F 53.6 °F 72% 29.71 in 10.0 mi South 26.5 mph 35.7 mph N/A   Clear
3:15 PM 62.6 °F 53.6 °F 72% 29.71 in 10.0 mi South 26.5 mph 36.8 mph N/A   Clear
3:35 PM 62.6 °F 53.6 °F 72% 29.71 in 10.0 mi South 24.2 mph 31.1 mph N/A   Clear
3:55 PM 62.6 °F 53.6 °F 72% 29.71 in 10.0 mi South 24.2 mph 36.8 mph N/A   Clear
4:15 PM 62.6 °F 51.8 °F 68% 29.71 in 10.0 mi South 27.6 mph 34.5 mph N/A   Clear
4:35 PM 60.8 °F 51.8 °F 72% 29.71 in 10.0 mi South 25.3 mph 32.2 mph N/A   Clear
4:55 PM 60.8 °F 51.8 °F 72% 29.72 in 10.0 mi South 20.7 mph 32.2 mph N/A   Clear
5:15 PM 60.8 °F 51.8 °F 72% 29.73 in 10.0 mi South 20.7 mph 31.1 mph N/A   Clear
5:35 PM 60.8 °F 51.8 °F 72% 29.73 in 10.0 mi South 20.7 mph 29.9 mph N/A   Clear
5:55 PM 60.8 °F 51.8 °F 72% 29.73 in 10.0 mi South 20.7 mph 27.6 mph N/A   Clear
6:15 PM 60.8 °F 50.0 °F 68% 29.74 in 10.0 mi South 19.6 mph 26.5 mph N/A   Clear
6:35 PM 60.8 °F 50.0 °F 68% 29.75 in 10.0 mi South 18.4 mph 26.5 mph N/A   Clear
6:55 PM 60.8 °F 48.2 °F 63% 29.75 in 10.0 mi South 20.7 mph 27.6 mph N/A   Clear
7:15 PM 59.0 °F 48.2 °F 67% 29.76 in 10.0 mi South 17.3 mph 21.9 mph N/A   Clear
7:35 PM 57.2 °F 48.2 °F 72% 29.77 in 10.0 mi South 17.3 mph 23.0 mph N/A   Clear
7:55 PM 57.2 °F 48.2 °F 72% 29.78 in 10.0 mi South 16.1 mph - N/A   Clear
8:15 PM 55.4 °F 46.4 °F 72% 29.79 in 10.0 mi South 15.0 mph 20.7 mph N/A   Clear
8:35 PM 55.4 °F 46.4 °F 72% 29.80 in 10.0 mi South 15.0 mph - N/A   Scattered Clouds
8:55 PM 55.4 °F 46.4 °F 72% 29.80 in 10.0 mi South 15.0 mph 19.6 mph N/A   Overcast
9:15 PM 55.4 °F 46.4 °F 72% 29.81 in 10.0 mi South 12.7 mph - N/A   Overcast
9:35 PM 55.4 °F 46.4 °F 72% 29.81 in 10.0 mi South 11.5 mph - N/A   Overcast
9:55 PM 55.4 °F 46.4 °F 72% 29.81 in 10.0 mi South 11.5 mph - N/A   Overcast
10:15 PM 57.2 °F 46.4 °F 67% 29.81 in 10.0 mi South 11.5 mph - N/A   Mostly Cloudy
10:35 PM 57.2 °F 48.2 °F 72% 29.81 in 10.0 mi South 12.7 mph - N/A   Clear
10:55 PM 57.2 °F 48.2 °F 72% 29.83 in 10.0 mi South 11.5 mph - N/A   Clear
11:15 PM 55.4 °F 46.4 °F 72% 29.83 in 10.0 mi South 11.5 mph - N/A   Partly Cloudy
11:35 PM 57.2 °F 48.2 °F 72% 29.83 in 10.0 mi South 11.5 mph - N/A   Clear